Wind_Speed
22 22 22 21 21 21 20 20 19 20 20 19 19 19 18 17 18 18 18 17 18 18 17 17 18 18 19 20 20 21 20 20 21 21 20 20 20 19 19 20 21 21 21 22
23 23 23 23 23 22 22 21 21 20 20 20 19 19 19 19 19 19 19 20 20 20 19 19 20 21 21 21 21 22 22 23 22 22 22 22 22 22 22 23 23 23 23 23
23 24 24 24 24 23 22 22 21 21 20 20 19 19 19 20 20 20 20 21 21 20 20 21 21 22 22 22 22 23 23 24 24 24 24 23 24 24 24 25 25 24 25 24
24 25 26 24 24 24 23 23 23 22 22 21 20 20 21 21 21 21 21 21 21 21 22 22 23 23 24 24 24 24 24 25 25 25 26 26 26 26 25 26 26 25 25 26
26 25 25 26 25 24 25 25 25 24 23 22 22 22 23 23 23 23 23 23 22 23 24 24 24 24 25 26 26 26 26 26 26 27 27 27 27 27 28 27 27 27 27 27
28 26 25 26 25 24 25 26 25 25 24 23 23 24 24 24 25 24 24 24 25 25 25 26 26 26 26 27 27 27 27 28 28 28 28 27 27 28 28 28 28 28 29 29
28 28 27 28 28 26 26 26 26 25 25 25 26 26 25 25 26 26 26 26 26 26 26 27 27 28 28 28 28 29 29 29 28 28 28 27 27 28 28 28 29 30 30 31
28 29 29 30 29 28 27 27 27 27 27 27 28 28 27 27 27 27 27 27 27 27 27 27 28 28 28 28 29 30 30 30 29 29 29 29 28 28 28 29 30 30 30 31
29 30 31 30 29 28 28 28 27 28 28 28 28 28 28 28 28 28 29 29 29 28 28 29 29 28 28 28 29 29 29 29 29 29 30 30 30 29 29 29 30 30 31 31
29 29 30 30 30 29 29 28 28 28 29 29 29 29 29 29 29 29 30 31 31 30 30 30 30 30 31 30 30 29 29 30 30 31 30 30 30 29 28 29 29 29 30 30
29 29 29 30 30 29 29 29 28 28 29 29 29 29 29 30 30 31 31 32 33 32 32 31 31 31 31 30 30 30 30 30 30 30 30 30 29 28 28 28 28 29 30 30
28 29 29 29 29 28 28 27 28 28 29 29 29 29 30 30 31 31 31 31 32 32 32 32 31 30 30 30 30 30 29 29 29 30 29 29 29 29 28 29 29 29 30 30
29 29 29 29 29 28 28 28 28 28 29 29 29 29 30 30 30 30 30 31 31 32 31 31 31 30 29 28 29 29 29 28 28 29 29 28 28 28 29 30 30 30 30 30
28 29 29 28 28 29 29 28 28 28 28 29 29 29 30 30 29 29 30 30 30 30 30 30 30 29 28 28 28 27 27 27 28 28 28 28 29 29 30 30 30 30 30 29
29 29 29 29 28 28 29 29 29 29 28 28 29 29 29 29 28 28 28 28 28 28 29 29 29 28 28 28 28 28 28 28 29 29 29 30 30 30 30 30 30 30 30 29
30 30 30 29 29 29 29 29 29 29 29 29 29 29 29 29 28 28 28 27 27 27 27 27 28 28 28 29 29 29 29 29 30 30 30 30 31 30 30 29 30 30 29 29
29 29 29 29 28 29 29 29 29 29 29 28 28 28 28 28 28 28 27 27 27 28 28 27 27 27 28 29 29 29 29 29 30 30 30 30 30 30 30 30 29 29 29 30
28 28 28 28 27 27 28 28 28 28 28 27 27 27 27 27 27 27 27 27 27 27 27 28 27 27 28 29 29 29 29 28 28 28 29 29 29 29 29 29 29 29 30 30
27 27 27 26 27 27 27 27 27 27 27 27 27 26 26 26 26 26 26 26 26 26 26 27 28 28 27 27 28 28 27 28 28 28 29 29 30 30 30 31 31 31 31 30
26 25 25 26 26 26 26 26 26 26 26 25 25 26 26 26 26 26 25 25 25 26 26 26 26 26 26 27 27 26 27 28 28 29 29 30 31 31 31 31 31 31 30 30
24 24 24 25 25 25 25 25 25 24 24 24 24 24 25 25 25 26 26 25 26 26 25 26 26 25 25 25 26 26 26 27 28 29 29 30 31 30 29 30 30 30 29 29
23 24 24 24 24 24 23 23 23 23 22 23 23 23 23 24 25 25 26 26 26 26 26 26 26 25 25 26 26 26 27 28 28 28 29 29 29 29 28 28 28 28 28 28
22 23 23 23 23 22 22 22 22 21 22 22 23 23 23 24 25 25 26 26 26 27 27 26 25 25 26 26 26 26 27 27 27 27 28 28 27 27 27 26 26 26 27 27
20 20 21 21 21 21 21 21 21 21 21 22 22 23 23 23 23 24 24 25 25 26 25 25 25 25 25 25 25 25 25 26 26 26 26 26 26 26 26 26 26 27 27 27
17 18 19 19 20 20 20 20 20 20 21 21 21 21 21 21 22 22 22 23 23 23 24 24 24 24 24 25 25 25 25 26 26 26 27 26 26 26 26 27 26 27 27 27
17 17 18 18 18 18 19 19 19 20 20 20 19 19 20 20 20 21 21 21 21 21 22 23 23 23 23 23 24 24 25 25 25 25 25 25 24 25 26 26 26 27 26 26
15 16 16 17 17 17 16 16 17 17 18 18 19 19 19 19 19 19 20 20 20 20 21 21 22 22 21 21 22 23 24 24 24 25 24 24 24 25 25 25 26 26 26 26
Wind_Direction
238 238 242 246 250 254 255 256 258 262 264 265 267 267 267 269 272 275 280 284 287 289 288 291 294 297 296 296 295 294 292 290 291 292 293 294 292 290 290 292 293 293 294 295
243 244 246 247 250 253 255 257 260 263 264 263 264 265 265 266 268 272 278 282 285 286 286 289 290 292 294 294 294 293 291 289 290 291 291 292 291 290 290 290 292 293 294 294
247 248 248 248 250 251 255 257 259 263 264 265 265 265 264 265 266 271 276 280 282 283 285 288 290 290 290 290 291 291 290 288 289 288 290 291 290 289 289 290 291 292 292 292
246 247 248 249 251 252 255 257 258 260 262 264 265 265 264 265 268 270 274 276 279 282 284 286 287 287 287 288 288 289 290 289 288 286 287 289 290 289 289 290 291 291 291 291
246 248 251 252 252 254 257 258 258 259 262 264 265 265 265 266 268 269 271 273 277 280 283 284 286 287 288 290 290 290 290 291 289 288 288 288 288 288 289 290 291 292 292 293
245 245 248 254 255 256 259 260 258 260 262 263 264 265 266 268 268 269 271 273 276 278 280 283 285 286 287 288 290 292 293 290 290 289 288 288 287 288 289 290 291 292 292 292
248 248 251 253 255 258 260 261 262 262 263 263 263 266 267 268 269 270 272 274 275 277 278 281 282 284 286 288 288 290 291 291 291 291 289 287 288 289 289 290 291 291 292 292
249 251 252 255 257 258 259 260 261 261 263 264 264 265 267 269 269 271 272 273 275 276 278 280 282 283 285 286 287 288 289 290 289 288 289 288 288 289 289 289 290 291 292 294
250 253 255 257 259 259 259 261 262 262 262 265 266 267 268 269 270 270 271 273 274 275 278 280 281 282 284 285 287 288 289 288 287 287 288 288 288 291 290 290 290 291 292 293
253 255 257 258 259 260 260 261 261 262 262 265 267 267 268 269 271 271 272 274 275 275 277 278 279 281 282 283 284 286 287 287 288 286 287 290 290 290 292 291 291 294 294 294
253 255 257 259 261 261 261 262 263 264 264 265 267 268 268 270 270 271 272 274 275 277 277 277 278 280 281 281 282 284 286 286 286 285 285 287 289 290 291 292 294 294 295 294
252 254 256 258 260 262 262 262 263 265 267 268 269 269 270 271 272 274 274 276 277 278 277 276 276 278 280 281 282 284 285 285 286 287 287 288 289 290 291 292 293 294 294 294
252 255 257 257 258 260 262 264 265 266 267 269 270 270 270 271 273 275 276 276 277 277 277 276 275 276 278 279 280 283 285 284 284 285 288 289 289 290 290 291 293 293 293 294
254 255 257 258 258 259 261 264 265 266 268 270 271 270 271 272 274 276 276 276 276 277 275 274 275 274 275 277 279 281 283 283 284 286 288 289 290 290 290 291 293 293 293 293
255 255 256 257 258 259 261 263 264 266 267 269 270 270 271 273 274 276 277 277 277 277 276 276 275 274 274 276 278 280 282 283 284 285 287 289 290 291 291 292 292 292 293 294
255 255 256 257 257 258 261 263 265 266 267 268 269 269 269 271 273 275 277 277 277 278 278 278 276 276 276 277 278 280 282 283 284 286 288 290 291 291 291 292 291 291 292 294
254 255 256 257 258 260 261 263 264 265 265 267 269 269 268 269 272 274 275 275 277 278 279 279 279 278 277 278 279 280 283 284 285 286 288 289 290 291 291 291 292 292 293 294
255 256 256 257 258 259 260 261 263 263 263 265 266 267 268 269 271 271 272 273 275 277 278 280 278 278 280 282 281 281 282 284 286 287 287 289 290 292 292 292 292 292 292 293
257 258 257 255 256 258 259 260 262 263 263 263 264 266 266 268 268 269 271 273 274 276 278 278 278 279 280 282 283 283 283 284 285 286 288 289 290 291 292 293 293 292 293 293
257 258 257 256 256 257 258 259 261 262 263 264 265 267 266 266 268 270 271 271 273 276 278 280 280 283 284 284 284 285 286 286 287 288 289 291 292 293 294 294 293 294 294 293
257 256 256 258 257 257 259 260 261 263 263 264 266 269 267 266 267 269 270 272 274 276 278 279 281 284 286 287 288 288 289 290 290 290 290 291 292 293 293 294 294 293 293 293
256 256 256 256 257 258 260 261 261 261 263 266 268 270 269 267 268 270 271 274 276 278 279 281 282 284 286 288 288 289 290 291 291 292 292 292 292 292 292 294 294 293 293 294
255 255 255 255 256 258 259 261 262 263 264 267 269 271 272 270 269 270 272 275 276 278 279 281 281 283 285 286 288 289 290 291 292 294 294 294 294 293 293 295 296 296 296 295
255 255 255 255 256 259 260 261 263 263 264 267 270 272 272 271 270 272 275 277 279 280 280 282 282 283 285 287 288 290 291 292 294 295 296 296 295 294 294 295 297 297 297 297
255 255 256 258 259 259 259 260 261 264 267 270 271 272 273 272 272 273 276 280 282 283 284 285 284 284 286 287 289 290 292 292 293 293 294 295 296 296 297 299 299 300 299 298
257 256 259 259 259 261 261 259 259 262 266 268 268 271 272 272 273 275 278 281 283 284 285 285 285 286 289 290 291 292 292 292 292 293 294 295 296 297 299 300 300 300 299 299
257 257 258 260 260 261 262 261 262 264 266 266 269 272 272 271 273 276 281 284 285 286 287 287 288 289 291 294 295 295 295 294 294 295 295 296 297 299 301 301 301 301 300 301
Height
5864 5865 5867 5869 5870 5871 5873 5874 5876 5876 5876 5876 5875 5875 5875 5875 5875 5875 5874 5874 5873 5871 5870 5869 5867 5865 5863 5862 5860 5858 5856 5854 5853 5851 5849 5847 5845 5843 5841 5839 5837 5835 5833 5831
5858 5860 5861 5863 5864 5866 5867 5868 5869 5869 5870 5869 5870 5870 5870 5870 5870 5870 5869 5869 5868 5866 5865 5864 5862 5861 5859 5857 5855 5853 5851 5849 5848 5846 5844 5842 5840 5838 5836 5833 5831 5829 5827 5825
5853 5854 5855 5857 5858 5859 5861 5862 5863 5864 5864 5863 5864 5864 5864 5864 5865 5864 5864 5863 5862 5861 5860 5859 5857 5855 5853 5851 5849 5847 5845 5844 5842 5840 5838 5836 5834 5831 5829 5827 5825 5823 5820 5818
5846 5848 5849 5853 5852 5853 5854 5855 5856 5856 5857 5857 5858 5858 5858 5859 5859 5859 5858 5857 5856 5855 5854 5852 5851 5849 5847 5845 5843 5841 5839 5837 5835 5833 5831 5829 5827 5825 5822 5820 5818 5815 5813 5811
5839 5841 5843 5844 5845 5846 5847 5848 5849 5850 5850 5851 5851 5852 5852 5852 5852 5852 5852 5851 5850 5849 5848 5846 5844 5842 5841 5839 5836 5834 5832 5830 5828 5826 5824 5822 5819 5817 5815 5813 5810 5808 5805 5803
5832 5834 5836 5838 5838 5839 5841 5840 5842 5842 5843 5844 5845 5845 5845 5845 5845 5845 5844 5844 5843 5842 5841 5839 5837 5835 5834 5832 5829 5827 5825 5823 5820 5818 5816 5814 5812 5809 5807 5804 5802 5800 5798 5795
5824 5826 5828 5829 5829 5832 5834 5834 5834 5835 5836 5836 5837 5838 5838 5838 5837 5837 5837 5836 5836 5834 5833 5832 5830 5828 5826 5824 5822 5820 5817 5815 5812 5810 5808 5806 5804 5802 5799 5797 5794 5792 5789 5787
5816 5818 5822 5820 5822 5824 5825 5825 5826 5827 5828 5828 5828 5829 5829 5829 5829 5829 5829 5828 5827 5826 5825 5824 5822 5820 5818 5816 5814 5812 5809 5807 5804 5802 5800 5798 5796 5793 5791 5789 5786 5784 5781 5778
5808 5811 5811 5812 5813 5815 5816 5817 5817 5819 5820 5820 5820 5820 5821 5821 5821 5821 5820 5820 5819 5818 5817 5815 5813 5812 5810 5808 5806 5804 5801 5799 5796 5794 5792 5789 5787 5785 5783 5780 5777 5775 5773 5770
5799 5801 5802 5803 5804 5806 5807 5808 5809 5810 5811 5812 5812 5812 5812 5812 5812 5812 5812 5811 5810 5809 5808 5806 5805 5803 5801 5799 5797 5795 5793 5791 5788 5786 5783 5781 5779 5776 5774 5772 5770 5767 5764 5761
5791 5792 5793 5795 5796 5798 5799 5799 5800 5801 5802 5803 5803 5803 5803 5803 5803 5803 5802 5801 5800 5799 5798 5797 5795 5794 5792 5790 5789 5787 5785 5782 5780 5777 5775 5773 5770 5768 5766 5764 5761 5759 5756 5753
5782 5784 5785 5787 5788 5789 5790 5791 5792 5793 5793 5794 5794 5794 5794 5794 5794 5793 5792 5792 5790 5789 5788 5787 5786 5784 5783 5781 5780 5778 5776 5774 5771 5769 5767 5765 5762 5760 5758 5756 5753 5750 5748 5745
5773 5775 5777 5778 5779 5781 5781 5782 5783 5784 5784 5785 5785 5785 5785 5785 5784 5783 5783 5782 5781 5780 5778 5777 5776 5774 5773 5772 5771 5769 5767 5765 5762 5760 5758 5756 5754 5751 5749 5747 5744 5742 5739 5736
5765 5766 5768 5769 5771 5772 5773 5774 5774 5775 5776 5776 5776 5776 5776 5775 5775 5774 5773 5773 5772 5770 5769 5768 5766 5765 5764 5763 5761 5760 5758 5756 5754 5752 5750 5748 5746 5743 5741 5738 5735 5732 5730 5727
5756 5757 5759 5761 5762 5763 5764 5765 5766 5766 5767 5767 5767 5767 5766 5766 5766 5765 5765 5763 5762 5761 5760 5759 5757 5756 5755 5754 5753 5751 5749 5747 5745 5743 5741 5739 5737 5734 5732 5729 5726 5724 5721 5718
5747 5748 5750 5751 5753 5754 5755 5756 5757 5757 5758 5758 5758 5758 5757 5757 5757 5756 5756 5755 5754 5752 5751 5750 5748 5747 5746 5745 5744 5742 5740 5738 5736 5734 5732 5730 5728 5725 5723 5720 5717 5715 5712 5709
5738 5739 5740 5742 5743 5745 5746 5747 5748 5748 5748 5749 5749 5749 5748 5748 5748 5748 5747 5746 5745 5744 5742 5741 5740 5739 5737 5736 5734 5733 5731 5729 5727 5725 5723 5721 5718 5716 5713 5711 5708 5706 5703 5700
5729 5730 5732 5733 5735 5736 5736 5737 5738 5738 5739 5739 5740 5740 5740 5739 5739 5739 5738 5737 5736 5735 5734 5733 5731 5730 5728 5727 5725 5724 5722 5720 5718 5716 5714 5711 5709 5707 5704 5702 5699 5697 5694 5691
5721 5722 5723 5724 5726 5727 5728 5728 5729 5729 5730 5730 5731 5731 5731 5731 5730 5730 5729 5729 5728 5727 5726 5725 5723 5721 5720 5718 5716 5715 5713 5711 5709 5707 5705 5703 5700 5698 5695 5693 5690 5687 5684 5681
5712 5714 5715 5716 5717 5718 5719 5720 5720 5721 5721 5721 5722 5722 5722 5722 5722 5721 5721 5720 5720 5719 5718 5716 5715 5713 5712 5710 5708 5706 5705 5703 5701 5698 5696 5693 5691 5688 5685 5683 5680 5677 5674 5672
5705 5706 5707 5708 5709 5710 5711 5712 5712 5713 5713 5713 5714 5713 5713 5713 5713 5712 5712 5712 5712 5711 5709 5708 5707 5706 5704 5702 5700 5698 5696 5694 5692 5689 5687 5684 5681 5679 5676 5673 5671 5668 5665 5662
5697 5698 5699 5700 5701 5702 5703 5704 5704 5704 5705 5705 5705 5705 5705 5705 5704 5704 5704 5703 5703 5702 5701 5700 5699 5697 5696 5694 5692 5690 5688 5685 5683 5680 5678 5675 5672 5669 5667 5664 5662 5659 5656 5653
5690 5691 5692 5693 5694 5695 5695 5696 5696 5697 5697 5698 5698 5697 5697 5696 5696 5696 5696 5695 5694 5693 5692 5691 5690 5689 5687 5685 5683 5681 5679 5677 5675 5672 5669 5666 5664 5661 5658 5656 5653 5650 5648 5645
5683 5684 5685 5686 5687 5687 5688 5689 5689 5690 5690 5690 5690 5690 5689 5688 5688 5688 5688 5687 5686 5685 5684 5683 5682 5680 5678 5677 5675 5673 5671 5669 5666 5664 5661 5658 5655 5653 5650 5648 5645 5642 5639 5637
5677 5678 5679 5679 5680 5681 5681 5682 5682 5683 5683 5683 5683 5682 5681 5680 5680 5680 5680 5679 5678 5677 5676 5675 5673 5672 5670 5669 5667 5665 5663 5661 5658 5656 5653 5650 5647 5645 5642 5639 5637 5634 5631 5628
5671 5672 5672 5673 5674 5674 5675 5675 5676 5676 5676 5676 5676 5675 5675 5674 5674 5673 5673 5672 5671 5670 5669 5667 5666 5664 5663 5661 5659 5657 5655 5652 5650 5647 5645 5642 5639 5637 5634 5632 5629 5626 5623 5620
5666 5666 5667 5668 5668 5668 5668 5669 5669 5670 5670 5670 5669 5669 5668 5668 5667 5667 5666 5665 5664 5663 5662 5660 5659 5657 5655 5653 5652 5649 5647 5644 5642 5639 5637 5634 5632 5629 5627 5624 5621 5618 5615 5612